Nashville, TN

10:31 AM CST on February 23, 2017 (GMT -0600)
Nashville International

Weather History for KBNA - December, 2012

Change the Weather History Date:

Saturday, December 22, 2012

  Actual Average Record
Temperature  
Mean Temperature 36 °F 39 °F  
Max Temperature 49 °F 48 °F 70 °F (2015)
Min Temperature 22 °F 30 °F -10 °F (1989)
Degree Days  
Heating Degree Days 29    
Month to date heating degree days 304  
Since 1 July heating degree days 1058  
Cooling Degree Days 0    
Month to date cooling degree days 2  
Year to date cooling degree days 1977  
Moisture  
Dew Point 14 °F    
Average Humidity 48    
Maximum Humidity 74    
Minimum Humidity 21    
Precipitation  
Precipitation 0.00 in 0.13 in 2.25 in (2004)
Month to date precipitation 2.49 3.18  
Year to date precipitation 43.60 46.19  
Snow  
Snow 0.00 in - 5.90 in (1963)
Month to date snowfall 0.0  
Since 1 July snowfall 0.0  
Snow Depth 0.00 in    
Sea Level Pressure  
Sea Level Pressure 30.27 in    
Wind  
Wind Speed 4 mph (SSW)    
Max Wind Speed 10 mph    
Max Gust Speed 14 mph    
Visibility 10 miles    
Events      
T = Trace of Precipitation, MM = Missing Value Source: NWS Daily Summary

Daily Weather History Graph

Daily Weather History Graph

Search for Another Location

Airport or City:

Trip Planner

Search our weather history database for the weather conditions in past years. The results will help you decide how hot, cold, wet, or windy it might be!

Date:

Astronomy

Dec. 22, 2012 Rise Set
Actual Time 6:54 AM CST 4:36 PM CST
Civil Twilight 6:25 AM CST 5:05 PM CST
Nautical Twilight 5:53 AM CST 5:37 PM CST
Astronomical Twilight 5:22 AM CST 6:08 PM CST
Moon 12:49 PM CST (12/22) 1:45 AM CST (12/22)
Length of Visible Light 10h 39m
Length of Day
9h 42m
Waxing Gibbous, 74% of the Moon is Illuminated
Dec 22
Waxing Gibbous
Dec 28
Full
Jan 4
Last Quarter
Jan 11
New
Jan 18
First Quarter

Hourly Weather History & Observations

Time (CST) Temp. Windchill Dew Point Humidity Pressure Visibility Wind Dir Wind Speed Gust Speed Precip Events Conditions
12:53 AM 32.0 °F 25.6 °F 9.0 °F 38% 30.29 in 10.0 mi NW 6.9 mph - N/A   Clear
1:53 AM 30.9 °F 27.5 °F 10.0 °F 42% 30.29 in 10.0 mi NW 3.5 mph - N/A   Clear
2:53 AM 28.9 °F 22.8 °F 10.9 °F 47% 30.30 in 10.0 mi NW 5.8 mph - N/A   Clear
3:53 AM 28.0 °F 24.2 °F 10.9 °F 49% 30.31 in 10.0 mi WNW 3.5 mph - N/A   Clear
4:53 AM 27.0 °F - 10.9 °F 51% 30.33 in 10.0 mi Calm Calm - N/A   Clear
5:53 AM 27.0 °F - 12.0 °F 53% 30.34 in 10.0 mi Calm Calm - N/A   Clear
6:53 AM 23.0 °F 18.4 °F 14.0 °F 68% 30.36 in 10.0 mi South 3.5 mph - N/A   Clear
7:53 AM 25.0 °F - 18.0 °F 75% 30.37 in 10.0 mi Calm Calm - N/A   Clear
8:53 AM 33.1 °F - 14.0 °F 46% 30.38 in 10.0 mi Calm Calm - N/A   Clear
9:53 AM 35.1 °F 32.2 °F 14.0 °F 42% 30.35 in 10.0 mi East 3.5 mph - N/A   Clear
10:53 AM 37.9 °F 33.5 °F 14.0 °F 38% 30.33 in 10.0 mi South 5.8 mph - N/A   Clear
11:53 AM 42.1 °F 40.2 °F 14.0 °F 32% 30.30 in 10.0 mi Variable 3.5 mph - N/A   Clear
12:53 PM 45.0 °F - 12.9 °F 27% 30.27 in 10.0 mi Calm Calm - N/A   Clear
1:53 PM 48.0 °F - 12.0 °F 24% 30.25 in 10.0 mi Calm Calm - N/A   Clear
2:53 PM 48.0 °F - 10.9 °F 22% 30.23 in 10.0 mi Variable 3.5 mph - N/A   Clear
3:53 PM 46.9 °F - 14.0 °F 27% 30.24 in 10.0 mi SSW 5.8 mph - N/A   Clear
4:53 PM 42.1 °F 39.2 °F 16.0 °F 35% 30.22 in 10.0 mi South 4.6 mph - N/A   Partly Cloudy
5:53 PM 42.1 °F 39.2 °F 16.0 °F 35% 30.22 in 10.0 mi South 4.6 mph - N/A   Clear
6:53 PM 37.0 °F 32.4 °F 19.0 °F 48% 30.21 in 10.0 mi South 5.8 mph - N/A   Clear
7:53 PM 34.0 °F 28.8 °F 19.9 °F 56% 30.20 in 10.0 mi South 5.8 mph - N/A   Clear
8:53 PM 34.0 °F 29.8 °F 19.0 °F 54% 30.18 in 10.0 mi South 4.6 mph - N/A   Partly Cloudy
9:53 PM 33.1 °F 26.1 °F 19.9 °F 59% 30.15 in 10.0 mi South 8.1 mph - N/A   Clear
10:53 PM 37.0 °F 32.4 °F 19.0 °F 48% 30.14 in 10.0 mi SSE 5.8 mph - N/A   Partly Cloudy
11:53 PM 35.1 °F 30.1 °F 19.9 °F 54% 30.12 in 10.0 mi South 5.8 mph - N/A   Scattered Clouds